Weather History for Homestead AFB, FL

Change the Weather History Date:

Saturday, September 7, 2013

  Actual Average Record
Temperature  
Mean Temperature 79 °F -  
Max Temperature 83 °F 89 °F 93 °F (1951)
Min Temperature 75 °F 71 °F 66 °F (1943)
Cooling Degree Days 14    
Growing Degree Days 29 (Base 50)    
Moisture  
Dew Point 74 °F    
Average Humidity 85    
Maximum Humidity 94    
Minimum Humidity 70    
Precipitation  
Precipitation 1.68 in - - ()
Sea Level Pressure  
Sea Level Pressure 29.97 in    
Wind  
Wind Speed 7 mph (NNE)    
Max Wind Speed 28 mph    
Max Gust Speed 37 mph    
Visibility 8 miles    
Events Rain , Thunderstorm    
Averages and records for this station are not official NWS values.
T = Trace of Precipitation, MM = Missing Value Source: NWS Daily Summary

Daily Weather History Graph

Daily Weather History Graph

Search for Another Location

Airport:

Trip Planner

Search our weather history database for the weather conditions in past years. The results will help you decide how hot, cold, wet, or windy it might be!

Date:

Astronomy

Sep. 07, 2013 Rise Set
Actual Time 7:04 AM EDT 7:33 PM EDT
Civil Twilight 6:41 AM EDT 7:57 PM EDT
Nautical Twilight 6:14 AM EDT 8:24 PM EDT
Astronomical Twilight 5:46 AM EDT 8:51 PM EDT
Moon 8:58 AM EDT (9/7) 8:53 PM EDT (9/7)
Length of Visible Light 13h 15m
Length of Day
12h 29m
Waxing Crescent, 5% of the Moon is Illuminated
Sep 7
Waxing Crescent
Sep 12
First Quarter
Sep 19
Full
Sep 26
Last Quarter
Oct 4
New

Hourly Weather History & Observations

Time (EDT) Temp. Heat Index Dew Point Humidity Pressure Visibility Wind Dir Wind Speed Gust Speed Precip Events Conditions
12:58 AM 81.9 °F 88.7 °F 75.6 °F 81% 29.98 in 10.0 mi NE 2.3 mph - N/A   Clear
1:58 AM 80.8 °F 87.4 °F 76.8 °F 88% 29.95 in 10.0 mi NNW 5.8 mph - N/A   Clear
2:58 AM 80.2 °F 85.8 °F 76.1 °F 87% 29.95 in 10.0 mi North 2.3 mph - N/A   Partly Cloudy
3:58 AM 79.3 °F - 76.6 °F 91% 29.93 in 10.0 mi ESE 2.3 mph - N/A   Partly Cloudy
4:58 AM 80.2 °F 85.5 °F 75.4 °F 85% 29.93 in 10.0 mi NE 2.3 mph - N/A   Clear
5:58 AM 80.2 °F 85.8 °F 76.1 °F 87% 29.93 in 10.0 mi NNE 3.5 mph - N/A   Clear
6:58 AM 80.1 °F 85.4 °F 75.7 °F 87% 29.95 in 10.0 mi North 4.6 mph - N/A   Clear
7:58 AM 80.6 °F 86.0 °F 74.8 °F 83% 29.96 in 10.0 mi North 4.6 mph - N/A   Partly Cloudy
8:36 AM 82.4 °F 90.9 °F 77.0 °F 84% 29.96 in 10.0 mi North 10.4 mph - N/A Thunderstorm Thunderstorm
8:58 AM 81.1 °F 87.4 °F 75.6 °F 83% 29.98 in 10.0 mi North 18.4 mph 24.2 mph N/A Rain , Thunderstorm Thunderstorms and Rain
9:04 AM 77.0 °F - 73.4 °F 89% 29.97 in 2.0 mi NNE 26.5 mph 31.1 mph N/A Rain , Thunderstorm Heavy Thunderstorms and Rain
9:09 AM 77.0 °F - 73.4 °F 89% 29.97 in 0.8 mi NNE 27.6 mph 36.8 mph N/A Rain , Thunderstorm Heavy Thunderstorms and Rain
9:19 AM 77.0 °F - 68.0 °F 74% 29.98 in 0.2 mi NNE 10.4 mph 34.5 mph N/A Rain , Thunderstorm Heavy Thunderstorms and Rain
9:24 AM 75.2 °F - 71.6 °F 89% 29.99 in 0.5 mi North 8.1 mph - N/A Rain , Thunderstorm Heavy Thunderstorms and Rain
9:29 AM 75.2 °F - 73.4 °F 94% 29.99 in 1.2 mi NNE 11.5 mph - N/A Rain , Thunderstorm Heavy Thunderstorms and Rain
9:36 AM 75.2 °F - 73.4 °F 94% 29.99 in 4.0 mi North 13.8 mph - N/A Rain , Thunderstorm Heavy Rain
9:58 AM 75.2 °F - 73.2 °F 94% 30.01 in 10.0 mi ENE 16.1 mph - 1.68 in Rain , Thunderstorm Light Rain
10:16 AM 75.2 °F - 71.6 °F 89% 30.00 in 10.0 mi East 16.1 mph - N/A Rain Light Rain
10:43 AM 75.2 °F - 69.8 °F 83% 29.99 in 10.0 mi East 5.8 mph - N/A Thunderstorm Clear
11:34 AM 75.2 °F - 71.6 °F 89% 30.03 in 10.0 mi SSW 9.2 mph - N/A Rain Light Rain
11:58 AM 75.2 °F - 72.7 °F 92% 30.01 in 10.0 mi South 6.9 mph - 0.00 in Thunderstorm Light Drizzle
12:49 PM 75.2 °F - 73.4 °F 94% 30.00 in 10.0 mi South 2.3 mph - N/A   Clear
12:58 PM 76.3 °F - 73.2 °F 90% 30.01 in 10.0 mi South 2.3 mph - 0.00 in   Clear
1:58 PM 78.6 °F - 74.8 °F 88% 29.99 in 10.0 mi NW 1.2 mph - N/A   Partly Cloudy
2:58 PM 81.7 °F 88.0 °F 74.8 °F 80% 29.95 in 10.0 mi NW 3.5 mph - N/A   Clear
3:58 PM 82.9 °F 88.3 °F 72.3 °F 70% 29.94 in 10.0 mi North 6.9 mph - N/A   Clear
4:58 PM 83.3 °F 90.8 °F 74.8 °F 76% 29.92 in 10.0 mi ENE 5.8 mph - N/A   Clear
5:58 PM 83.3 °F 91.1 °F 75.6 °F 77% 29.93 in 10.0 mi ENE 3.5 mph - N/A   Clear
6:58 PM 83.5 °F 91.6 °F 75.6 °F 77% 29.92 in 10.0 mi ESE 1.2 mph - N/A   Clear
7:58 PM 81.3 °F 87.8 °F 75.6 °F 83% 29.94 in 10.0 mi ENE 2.3 mph - N/A   Clear
8:58 PM 79.7 °F - 74.8 °F 85% 29.95 in 10.0 mi NW 3.5 mph - N/A   Clear
9:58 PM 80.1 °F 85.1 °F 75.2 °F 85% 29.98 in 10.0 mi NNE 5.8 mph - N/A Thunderstorm Clear
10:58 PM 78.3 °F - 72.7 °F 83% 29.97 in 10.0 mi SSE 5.8 mph - N/A   Mostly Cloudy
11:58 PM 75.9 °F - 71.1 °F 85% 29.95 in 10.0 mi WSW 2.3 mph - N/A   Clear